This is the latest recevied weather packets stored in our database for station/object VK3CG. If no packets are shown the sender has not sent any weather packets the latest 10 day(s).
| Time | Temp. | Humidity | Pressure | Rain* | Wind** | Luminosity | Snow |
|---|---|---|---|---|---|---|---|
| 1777800615 | 11.11° C | 68% | 1023.5 hPa | 0 mm | - | 0 W/m² | - |
| 1777799732 | 11.11° C | 68% | 1022.9 hPa | 0 mm | - | 0 W/m² | - |
| 1777798814 | 11.11° C | 68% | 1023 hPa | 0 mm | - | 0 W/m² | - |
| 1777797926 | 11.11° C | 67% | 1022.7 hPa | 0 mm | - | 0 W/m² | - |
| 1777797014 | 11.11° C | 67% | 1022.7 hPa | 0 mm | - | 0 W/m² | - |
| 1777796116 | 11.11° C | 66% | 1022.4 hPa | 0 mm | - | 0 W/m² | - |
| 1777795211 | 11.11° C | 66% | 1022.1 hPa | 0 mm | - | 0 W/m² | - |
| 1777794312 | 11.67° C | 65% | 1021.9 hPa | 0 mm | - | 0 W/m² | - |
| 1777793407 | 11.67° C | 65% | 1022 hPa | 0 mm | - | 0 W/m² | - |
| 1777792506 | 12.22° C | 65% | 1021.9 hPa | 0 mm | - | 11 W/m² | - |
| 1777791604 | 12.22° C | 64% | 1021.9 hPa | 0 mm | - | 18 W/m² | - |
| 1777790707 | 12.22° C | 64% | 1022 hPa | 0 mm | - | 19 W/m² | - |
| 1777789807 | 12.22° C | 64% | 1021.6 hPa | 0 mm | - | 23 W/m² | - |
| 1777788903 | 12.22° C | 65% | 1021.7 hPa | 0 mm | - | 149 W/m² | - |
| 1777788002 | 12.22° C | 68% | 1021.5 hPa | 0 mm | - | 33 W/m² | - |
| 1777787102 | 12.22° C | 72% | 1021.3 hPa | 0 mm | - | 67 W/m² | - |
| 1777786261 | 12.22° C | 75% | 1021.4 hPa | 0 mm | - | 109 W/m² | - |
| 1777785360 | 12.78° C | 78% | 1021.4 hPa | 0.25 mm | - | 167 W/m² | - |
| 1777784463 | 12.22° C | 78% | 1021.3 hPa | 0.51 mm | - | 155 W/m² | - |
| 1777783557 | 12.22° C | 78% | 1021.4 hPa | 0.51 mm | - | 155 W/m² | - |
| 1777782658 | 12.78° C | 78% | 1021.4 hPa | 0.51 mm | - | 79 W/m² | - |
| 1777781754 | 12.78° C | 78% | 1021.4 hPa | 0.76 mm | - | 146 W/m² | - |
| 1777780855 | 13.33° C | 78% | 1021.4 hPa | 1.02 mm | - | 72 W/m² | - |
| 1777779943 | 13.33° C | 78% | 1021.6 hPa | 2.29 mm | - | 49 W/m² | - |
| 1777777264 | 14.44° C | 78% | 1021.1 hPa | 2.29 mm | - | 139 W/m² | - |
* Rain latest hour (hover to see other rain measurements)
** Current wind speed in m/s (hover to see current wind gust speed)